STARLINK-36822

Last updated on Wed Mar 25 2026 00:02:05 GMT+0000 (Coordinated Universal Time)

1 67909U 26036F 26080.98203987 .00091436 00000+0 15460-2 0 9990 2 67909 43.0011 176.5760 0001963 259.9323 100.1316 15.50583367 5590
UTC large
Height (km)
Speed (km/s)
/
Latitude / Longitude
Inclination (degrees)
Orbital Period (minutes)
Azimuth
Elevation
Range (km)
Doppler Factor

Next 0 passes for location: London (51.5072 / 0.1276)

Sorry there are no passes over London.